STARLINK-11513, 62589

Orbit data source: Space-Track

STARLINK-11513, 62589 is a payload satellite owned by SpaceX/Seattle (US) in LEO that was launched on Mon, 13 Jan 2025 UTC via an FALCON 9 launch vehicle from the Air Force Eastern Test Range (AFETR). Payload-class satellites include a variety of spacecraft equipped with specific instruments for various scientific and technological missions. These include communications satellites like Starlink; space stations such as the ISS; scientific satellites like the Hubble; Earth observation satellites from companies like Planet Labs, Umbra, and HawkEye 360; GPS; miniature CubeSats for education and research; and military/defense satellites.

Loading next visibility...
Identifier
62589, 2025-008C
Orbit
LEO
Country
Flag of USUS
Related business
Manufacturer
SpaceX/Seattle
Mission
Operational Commercial Communications
Bus & Motor
STARLINK V2M, Unknown motor
Mass
730 kg wet, ~700 kg dry
Launch date (UTC)
2025-01-13 (8 months ago)
Launch vehicle
FALCON 9
Launch site
Air Force Eastern Test Range (AFETR)
Object type
Payload
Rocket body
Debris
Shape & HBR
Box + 2 Pan, 14.5 m
Radar Cross Section
36.964 m², Large (>1 m²)

Expand to show TLE details & history
Last TLE update: 20 hours ago

TLE from 20 hours ago
0 STARLINK-11513
1 62589U 25008C   25242.17765597  .00275183  00000-0  20589-2 0  9999
2 62589  42.9996 200.6017 0001782 234.0517 126.0185 15.71058364 35996
Epoch: 2025-08-30T04:15Z
TLE epoch observation values (Epoch: 2025-08-30T04:15:49.475Z)
Latitude
-0.00007°
Longitude
158.02979°
Altitude
356.348 km
Speed
7.697 km/s
True Right ascension
13h 22m 24s
True Declination
0° 00' 00"
Sunlit
Object was in daylight at epoch
Visualization orbit readout
Latitude
Unknown
Longitude
Unknown
Altitude
Unknown
Speed
Unknown
Apparent Right ascension
Unknown
Apparent Declination
Unknown
Sunlit
N/A
Visualization observer readout
Local Sidereal Time
16:02:13
Azimuth
Unknown
Elevation
Unknown
Doppler factor
Unknown
Orbital elements
Apogee altitude
359.053 km
Perigee altitude
356.652 km
Semi-major axis
6,735.99 km
Eccentricity
0.00018
Inclination
42.9996°
RAAN
200.6017°
Arg. of periapsis
234.0517°
True anomaly
126.03501°
Mean anomaly
126.0185°
Eccentric anomaly
126.02676°
Mean motion
3.92592 °/min
Orbital period
91.7 mins
BSTAR
0.0020589
Loading maneuver chart data...
Computing Atmospheric mass density...
Loading historical data...
Loading historical data...
Loading historical data...
Loading historical data...
Loading historical data...
Loading historical data...
Loading historical data...

Documentation

Showing up to 5 results
|